Regional Weather Roundup
Issued by NWS

Home | Current Version | Previous Version | Text Only | Print | Product List | Glossary Off
Versions: 1 2 3 4 5 6 7 8 9 10 11 12 13 14 15 16 17 18 19 20 21 22 23 24 25 26 27 28 29 30 31 32 33 34 35 36 37 38 39 40 41 42 43 44 45 46 47 48 49 50

000
ASUS43 KIND 301709
RWRIN

WEATHER ROUNDUP FOR INDIANA
NATIONAL WEATHER SERVICE INDIANAPOLIS IN
100 PM EDT MON MAY 30 2016

NOTE: "FAIR" INDICATES FEW OR NO CLOUDS BELOW 12,000 FEET WITH NO
SIGNIFICANT WEATHER AND/OR OBSTRUCTIONS TO VISIBILITY.

* - STATION DOES NOT REPORT WEATHER SUCH AS PRECIPITATION OR FOG.

+ - STATION NOT QUALITY CONTROLLED BY THE NATIONAL WEATHER SERVICE.
    USE DATA WITH CAUTION...ESPECIALLY DEWPOINT AND RELATIVE
    HUMIDITY OBSERVATIONS.

INZ001>003-010>013-019-020-301800-
NORTHWEST INDIANA

CITY           SKY/WX    TMP DP  RH WIND       PRES   REMARKS
GARY /AIRPORT/ MOSUNNY   81  66  61 NE12      30.03F
KNOX *+          N/A     82  41  23 W14G20    30.02F
LA PORTE +     SUNNY     83  59  43 NW5       30.04F
MICHIGAN CITY+ SUNNY     79  61  53 N3        30.04F
MONTICELLO +   MOSUNNY   83  46  27 W8        30.03F
RENSSELAER +   SUNNY     82  52  34 W5        30.03F
VALPARAISO     MOSUNNY   84  59  42 W14       30.03F

$$

LMZ046-743>745-301800-
SOUTHERN LAKE MICHIGAN

STATION/POSITION TIME  TEMP    WIND        PRES    WAVE
                       AIR SEA DIR/SP/G            HT
                 (UTC) (F)     (DEG/KT/KT) (MB)    (FT)
BURNS HARBOR     1600   72      20/  4/  4 1017.9R
MICHIGAN CITY    1600   71     270/  5/  5   N/A
5NW MICH CITY    1700   67 63   20/  4/  6   N/A     1

$$

INZ004-005-014>016-021>024-301800-
NORTH CENTRAL INDIANA

CITY           SKY/WX    TMP DP  RH WIND       PRES   REMARKS
ELKHART        MOSUNNY   82  63  51 NW8       30.04F
GOSHEN         MOSUNNY   82  58  43 W10G16    30.03F
LOGANSPORT +   MOSUNNY   82  54  36 NW8       30.04F
PERU/GRISSOM   SUNNY     83  57  41 NW13      30.03F
ROCHESTER +    SUNNY     86  57  37 W7        30.04F
SOUTH BEND     SUNNY     81  57  43 NW8G20    30.04F
WARSAW +       PTSUNNY   82  55  39 W16       30.04F

$$

INZ006>009-017-018-025>027-301800-
NORTHEAST INDIANA

CITY           SKY/WX    TMP DP  RH WIND       PRES   REMARKS
ANGOLA *+        N/A     84  79  84 NW10      30.04R HX  96
AUBURN +       MOSUNNY   82  50  32 W7        30.05S
FORT WAYNE     CLOUDY    82  55  39 NW9       30.04F
HUNTINGTON +   MOSUNNY   82  57  42 SW9G16    30.03F

$$

INZ028-029-035-036-043>045-051>053-301800-
WEST CENTRAL INDIANA

CITY           SKY/WX    TMP DP  RH WIND       PRES   REMARKS
CRAWFORDSVL +  MOSUNNY   81  54  39 SW5       30.06F
GREENCASTLE +  PTSUNNY   81  61  50 CALM      30.07S
LAFAYETTE      MOSUNNY   83  53  35 NW5       30.03F
TERRE HAUTE    SUNNY     83  55  38 SW3       30.07S

$$

INZ030>032-037>040-046>048-054>057-064-065-301800-
CENTRAL INDIANA

CITY           SKY/WX    TMP DP  RH WIND       PRES   REMARKS
CP ATTERBURY + SUNNY     81  59  47 CALM      30.07F
COLUMBUS       MOSUNNY   81  57  44 NE6       30.06S
FISHERS *+     PTSUNNY   82  61  47 CALM      30.06F
FRANKFORT +      N/A     84  31  15 N8        30.07F
GREENWOOD *+   SUNNY     81  55  41 N3        30.07S
INDIANAPOLIS   MOSUNNY   83  55  38 W8        30.05S
-EAGLE CREEK   SUNNY     83  55  38 CALM      30.05F
KOKOMO *+      SUNNY     84  55  37 NW8G17    30.04F
MARION +       PTSUNNY   81  53  37 NW12      30.05F HAZE
SHELBYVILLE    PTSUNNY   84  55  36 E8        30.05F
ZIONSVILLE +   SUNNY     81  55  40 W5        30.07S

$$

INZ033-034-041-042-049-050-058-059-301800-
EAST CENTRAL INDIANA

CITY           SKY/WX    TMP DP  RH WIND       PRES   REMARKS
MUNCIE         MOSUNNY   84  54  35 NW7       30.05F

$$

INZ060-061-067>069-081>083-085>088-301800-
SOUTHWEST INDIANA

CITY           SKY/WX    TMP DP  RH WIND       PRES   REMARKS
EVANSVILLE     SUNNY     84  59  42 VRB6      30.06F
HUNTINGBURG *+ SUNNY     82  63  51 CALM      30.06F
WASHINGTON +   SUNNY     81  58  45 CALM      30.06S

$$

INZ062-063-066-070>080-084-089>092-301800-
SOUTH CENTRAL AND SOUTHEAST INDIANA

CITY           SKY/WX    TMP DP  RH WIND       PRES   REMARKS
BEDFORD +      SUNNY     81  68  65 CALM      30.06F
BLOOMINGTON    SUNNY     82  56  40 VRB3      30.07F
MADISON *+     SUNNY     82  50  32 NW5       30.07F
NORTH VERNON + SUNNY     84  63  48 CALM      30.06F
SEYMOUR +      SUNNY     84  57  39 N7        30.05F

$$





USA.gov is the U.S. government's official web portal to all federal, state and local government web resources and services.